timestamp,wind_dir_avg,wind_spd_avg,wind_spd_max_dir,wind_spd_gust,battery_voltage,lat,long
2023-03-21 00:04:01+00:00,268.0,19.56,274.0,21.62,12.33,47.59359,-54.27349
2023-03-21 00:14:01+00:00,268.0,18.49,278.0,22.05,12.25,47.59359,-54.27349
2023-03-21 00:24:01+00:00,267.0,18.77,276.0,21.37,12.25,47.59359,-54.27349
2023-03-21 00:34:01+00:00,269.0,17.07,278.0,21.99,12.25,47.59359,-54.27349
2023-03-21 00:44:01+00:00,268.0,18.47,274.0,21.55,12.25,47.59359,-54.27349
2023-03-21 00:54:01+00:00,267.0,17.97,275.0,21.68,12.25,47.59359,-54.27349
2023-03-21 01:04:01+00:00,271.0,19.73,272.0,27.52,12.25,47.59359,-54.27349
2023-03-21 01:14:00+00:00,276.0,18.68,280.0,22.3,12.25,47.59359,-54.27349
2023-03-21 01:24:00+00:00,270.0,19.19,275.0,21.81,12.25,47.59359,-54.27349
2023-03-21 01:34:00+00:00,275.0,19.75,284.0,22.82,12.25,47.59359,-54.27349
2023-03-21 01:44:00+00:00,274.0,19.79,280.0,22.06,12.25,47.59359,-54.27349
2023-03-21 01:54:00+00:00,272.0,18.52,271.0,24.5,12.25,47.59359,-54.27349
2023-03-21 02:04:00+00:00,272.0,16.32,277.0,21.93,12.25,47.59359,-54.27349
2023-03-21 02:14:00+00:00,277.0,19.25,284.0,22.72,12.17,47.59359,-54.27349
2023-03-21 02:24:00+00:00,273.0,14.83,279.0,17.44,12.17,47.59359,-54.27349
2023-03-21 02:34:00+00:00,269.0,16.84,268.0,20.08,12.17,47.59359,-54.27349
2023-03-21 02:44:00+00:00,276.0,18.93,280.0,22.16,12.17,47.59359,-54.27349
2023-03-21 02:54:00+00:00,273.0,15.34,277.0,19.77,12.17,47.59359,-54.27349
2023-03-21 03:04:00+00:00,277.0,18.27,282.0,21.96,12.17,47.59359,-54.27349
2023-03-21 03:14:01+00:00,274.0,19.42,273.0,22.31,12.17,47.59359,-54.27349
2023-03-21 03:24:01+00:00,273.0,19.55,278.0,21.68,12.17,47.59359,-54.27349
2023-03-21 03:34:01+00:00,283.0,17.9,294.0,23.48,12.17,47.59359,-54.27349
2023-03-21 03:44:01+00:00,277.0,18.58,287.0,22.81,12.17,47.59359,-54.27349
2023-03-21 03:54:01+00:00,274.0,19.62,279.0,22.03,12.17,47.59359,-54.27349
2023-03-21 04:04:01+00:00,277.0,17.87,281.0,22.03,12.17,47.59359,-54.27349
2023-03-21 04:14:00+00:00,276.0,18.33,294.0,23.32,12.17,47.59359,-54.27349
2023-03-21 04:24:00+00:00,275.0,16.89,278.0,21.51,12.17,47.59359,-54.27349
2023-03-21 04:34:00+00:00,276.0,17.15,278.0,21.64,12.17,47.59359,-54.27349
2023-03-21 04:44:00+00:00,270.0,17.46,274.0,21.52,12.17,47.59359,-54.27349
2023-03-21 04:54:00+00:00,271.0,16.07,266.0,19.27,12.17,47.59359,-54.27349
2023-03-21 05:04:00+00:00,273.0,16.63,277.0,19.77,12.17,47.59359,-54.27349
2023-03-21 05:14:00+00:00,275.0,20.23,277.0,24.3,12.09,47.59359,-54.27349
2023-03-21 05:24:00+00:00,277.0,15.68,283.0,18.13,12.09,47.59359,-54.27349
2023-03-21 05:34:00+00:00,276.0,19.18,290.0,23.23,12.09,47.59359,-54.27349
2023-03-21 05:44:00+00:00,278.0,17.37,277.0,21.05,12.09,47.59359,-54.27349
2023-03-21 05:54:00+00:00,282.0,18.41,279.0,22.11,12.09,47.59359,-54.27349
2023-03-21 06:04:00+00:00,276.0,18.01,284.0,21.85,12.09,47.59359,-54.27349
2023-03-21 06:14:00+00:00,279.0,17.9,284.0,21.35,12.09,47.59359,-54.27349
2023-03-21 06:24:00+00:00,278.0,16.99,279.0,21.75,12.09,47.59359,-54.27349
2023-03-21 06:34:00+00:00,283.0,18.86,286.0,22.28,12.09,47.59359,-54.27349
2023-03-21 06:44:00+00:00,281.0,16.31,282.0,19.42,12.09,47.59359,-54.27349
2023-03-21 06:54:00+00:00,278.0,15.87,285.0,19.65,12.09,47.59359,-54.27349
2023-03-21 07:04:00+00:00,276.0,15.33,275.0,18.82,12.09,47.59359,-54.27349
2023-03-21 07:14:00+00:00,278.0,15.0,280.0,17.66,12.09,47.59359,-54.27349
2023-03-21 07:24:00+00:00,276.0,14.53,273.0,18.0,12.09,47.59359,-54.27349
2023-03-21 07:34:00+00:00,282.0,13.4,277.0,15.91,12.09,47.59359,-54.27349
2023-03-21 07:44:00+00:00,275.0,15.36,279.0,18.71,12.09,47.59359,-54.27349
2023-03-21 07:54:00+00:00,279.0,12.59,279.0,14.97,12.09,47.59359,-54.27349
2023-03-21 08:04:00+00:00,278.0,12.75,279.0,15.3,12.09,47.59359,-54.27349
2023-03-21 08:14:00+00:00,281.0,13.68,279.0,16.46,12.09,47.59359,-54.27349
2023-03-21 08:24:00+00:00,276.0,13.9,280.0,17.59,12.09,47.59359,-54.27349
2023-03-21 08:34:00+00:00,283.0,12.23,285.0,14.55,12.09,47.59359,-54.27349
2023-03-21 08:44:00+00:00,277.0,14.28,284.0,17.34,12.09,47.59359,-54.27349
2023-03-21 08:54:00+00:00,281.0,12.07,293.0,16.9,12.09,47.59359,-54.27349
2023-03-21 09:04:00+00:00,283.0,14.46,287.0,16.66,12.09,47.59359,-54.27349
2023-03-21 09:14:00+00:00,273.0,13.43,277.0,16.67,12.01,47.59359,-54.27349
2023-03-21 09:24:00+00:00,275.0,13.56,271.0,16.29,12.01,47.59359,-54.27349
2023-03-21 09:34:00+00:00,274.0,12.59,271.0,14.75,12.01,47.59359,-54.27349
2023-03-21 09:44:00+00:00,280.0,13.28,281.0,16.13,12.01,47.59359,-54.27349
2023-03-21 09:54:00+00:00,279.0,12.76,280.0,15.42,12.01,47.59359,-54.27349
2023-03-21 10:04:00+00:00,274.0,13.32,276.0,16.16,12.01,47.59359,-54.27349
2023-03-21 10:14:00+00:00,274.0,13.31,266.0,15.97,12.09,47.59359,-54.27349
2023-03-21 10:24:00+00:00,280.0,13.26,287.0,17.23,12.09,47.59359,-54.27349
2023-03-21 10:34:00+00:00,277.0,13.58,276.0,15.86,12.09,47.59359,-54.27349
2023-03-21 10:44:00+00:00,286.0,11.79,286.0,13.85,12.09,47.59359,-54.27349
2023-03-21 10:54:00+00:00,277.0,11.98,284.0,16.46,12.09,47.59359,-54.27349
2023-03-21 11:04:00+00:00,275.0,11.27,277.0,12.92,12.09,47.59359,-54.27349
2023-03-21 12:14:00+00:00,288.0,13.8,286.0,16.28,13.76,47.59359,-54.27349
2023-03-21 12:24:00+00:00,292.0,14.54,299.0,19.73,13.76,47.59359,-54.27349
2023-03-21 12:34:00+00:00,292.0,14.3,298.0,17.45,13.76,47.59359,-54.27349
2023-03-21 12:44:00+00:00,295.0,14.42,295.0,18.11,13.76,47.59359,-54.27349
2023-03-21 12:54:00+00:00,289.0,13.82,286.0,16.55,13.76,47.59359,-54.27349
2023-03-21 13:04:00+00:00,296.0,14.74,304.0,18.7,13.76,47.59359,-54.27349
2023-03-21 13:14:00+00:00,289.0,16.34,291.0,21.02,14.0,47.59359,-54.27349
2023-03-21 13:24:00+00:00,290.0,14.81,283.0,18.88,14.0,47.59359,-54.27349
2023-03-21 13:34:00+00:00,289.0,15.2,288.0,17.21,14.0,47.59359,-54.27349
2023-03-21 13:44:00+00:00,293.0,15.61,298.0,20.56,14.0,47.59359,-54.27349
2023-03-21 13:54:00+00:00,291.0,13.93,288.0,16.3,14.0,47.59359,-54.27349
2023-03-21 14:04:00+00:00,292.0,13.71,298.0,17.72,14.0,47.59359,-54.27349
2023-03-21 14:14:00+00:00,285.0,13.85,286.0,17.58,13.68,47.59359,-54.27349
2023-03-21 14:24:00+00:00,285.0,15.83,286.0,18.76,13.68,47.59359,-54.27349
2023-03-21 14:34:00+00:00,277.0,14.67,275.0,17.41,13.68,47.59359,-54.27349
2023-03-21 14:44:00+00:00,289.0,11.86,289.0,14.46,13.68,47.59359,-54.27349
2023-03-21 14:54:00+00:00,289.0,11.3,289.0,12.9,13.68,47.59359,-54.27349
2023-03-21 15:04:00+00:00,291.0,8.88,294.0,11.08,13.68,47.59359,-54.27349
2023-03-21 15:14:00+00:00,293.0,11.25,284.0,14.88,13.68,47.59359,-54.27349
2023-03-21 15:24:00+00:00,295.0,13.09,298.0,14.48,13.68,47.59359,-54.27349
2023-03-21 15:34:00+00:00,287.0,11.66,285.0,12.65,13.68,47.59359,-54.27349
2023-03-21 15:44:00+00:00,282.0,11.77,276.0,13.06,13.68,47.59359,-54.27349
2023-03-21 15:54:00+00:00,291.0,10.3,300.0,11.97,13.68,47.59359,-54.27349
2023-03-21 16:04:00+00:00,279.0,10.64,275.0,14.05,13.68,47.59359,-54.27349
2023-03-21 16:14:00+00:00,297.0,10.82,301.0,13.16,14.24,47.59359,-54.27349
2023-03-21 16:24:00+00:00,294.0,9.68,299.0,12.16,14.24,47.59359,-54.27349
2023-03-21 16:34:00+00:00,285.0,11.0,282.0,13.2,14.24,47.59359,-54.27349
2023-03-21 16:44:00+00:00,289.0,13.05,286.0,18.01,14.24,47.59359,-54.27349
2023-03-21 16:54:00+00:00,303.0,10.7,308.0,13.54,14.24,47.59359,-54.27349
2023-03-21 17:04:00+00:00,287.0,10.63,290.0,12.32,14.24,47.59359,-54.27349
2023-03-21 17:14:00+00:00,306.0,12.86,310.0,14.16,13.76,47.59359,-54.27349
2023-03-21 17:24:00+00:00,292.0,13.33,296.0,16.9,13.76,47.59359,-54.27349
2023-03-21 17:34:00+00:00,294.0,10.58,302.0,12.22,13.76,47.59359,-54.27349
2023-03-21 17:44:00+00:00,291.0,12.21,293.0,12.86,13.76,47.59359,-54.27349
2023-03-21 17:54:00+00:00,302.0,11.59,300.0,13.65,13.76,47.59359,-54.27349
2023-03-21 18:04:00+00:00,295.0,12.75,292.0,16.67,13.76,47.59359,-54.27349
2023-03-21 18:14:00+00:00,303.0,11.9,306.0,13.74,13.68,47.59359,-54.27349
2023-03-21 18:24:00+00:00,293.0,10.7,292.0,13.07,13.68,47.59359,-54.27349
2023-03-21 18:34:00+00:00,290.0,14.22,290.0,18.36,13.68,47.59359,-54.27349
2023-03-21 18:44:00+00:00,285.0,10.7,285.0,12.0,13.68,47.59359,-54.27349
2023-03-21 18:54:00+00:00,296.0,10.02,305.0,12.36,13.68,47.59359,-54.27349
2023-03-21 19:04:00+00:00,307.0,11.37,307.0,13.52,13.68,47.59359,-54.27349
2023-03-21 19:14:00+00:00,310.0,13.22,315.0,14.76,14.0,47.59359,-54.27349
2023-03-21 19:24:00+00:00,295.0,9.27,299.0,10.39,14.0,47.59359,-54.27349
2023-03-21 19:34:00+00:00,301.0,9.84,302.0,11.19,14.0,47.59359,-54.27349
2023-03-21 19:44:00+00:00,307.0,10.81,301.0,12.09,14.0,47.59359,-54.27349
2023-03-21 19:54:00+00:00,292.0,9.62,294.0,11.31,14.0,47.59359,-54.27349
2023-03-21 20:04:00+00:00,300.0,10.37,298.0,11.46,14.0,47.59359,-54.27349
2023-03-21 20:14:00+00:00,304.0,9.94,301.0,11.03,13.6,47.59359,-54.27349
2023-03-21 20:24:00+00:00,305.0,10.04,307.0,11.84,13.6,47.59359,-54.27349
2023-03-21 20:34:00+00:00,302.0,10.35,296.0,12.11,13.6,47.59359,-54.27349
2023-03-21 20:44:00+00:00,297.0,9.04,299.0,10.55,13.6,47.59359,-54.27349
2023-03-21 20:54:00+00:00,300.0,11.75,301.0,14.29,13.6,47.59359,-54.27349
2023-03-21 21:04:00+00:00,305.0,9.53,302.0,10.68,13.6,47.59359,-54.27349
2023-03-21 21:14:00+00:00,303.0,10.13,306.0,11.83,13.37,47.59359,-54.27349
2023-03-21 21:24:00+00:00,299.0,8.88,302.0,9.96,13.37,47.59359,-54.27349
2023-03-21 21:34:00+00:00,303.0,8.53,308.0,10.05,13.37,47.59359,-54.27349
2023-03-21 21:44:00+00:00,306.0,8.33,306.0,9.84,13.37,47.59359,-54.27349
2023-03-21 21:54:00+00:00,305.0,7.76,305.0,10.45,13.37,47.59359,-54.27349
2023-03-21 22:04:00+00:00,310.0,7.01,302.0,9.5,13.37,47.59359,-54.27349
2023-03-21 22:14:00+00:00,310.0,7.59,302.0,10.11,12.81,47.59359,-54.27349
2023-03-21 22:24:00+00:00,302.0,7.48,304.0,10.04,12.81,47.59359,-54.27349
2023-03-21 22:34:00+00:00,306.0,7.24,297.0,9.97,12.81,47.59359,-54.27349
2023-03-21 22:44:00+00:00,297.0,8.24,298.0,10.84,12.81,47.59359,-54.27349
2023-03-21 22:54:00+00:00,298.0,9.62,295.0,10.96,12.81,47.59359,-54.27349
2023-03-21 23:04:00+00:00,298.0,9.82,300.0,11.69,12.81,47.59359,-54.27349
2023-03-21 23:14:00+00:00,300.0,10.33,298.0,11.8,12.41,47.59359,-54.27349
2023-03-21 23:24:00+00:00,301.0,10.17,301.0,12.21,12.41,47.59359,-54.27349
2023-03-21 23:34:00+00:00,297.0,10.47,294.0,11.71,12.41,47.59359,-54.27349
2023-03-21 23:44:00+00:00,310.0,10.11,310.0,13.35,12.41,47.59359,-54.27349
2023-03-21 23:54:00+00:00,305.0,8.03,297.0,11.21,12.41,47.59359,-54.27349
